Temperature
15 15 15 15 14 14 14 14 14 13 13 13 13 13 13 13 13 13 14 14 14 14 14 14 14 14 14 14 15 15 15 15 15 15 15 15 15 15
14 14 14 14 14 14 14 14 14 14 13 13 13 13 13 13 13 13 13 13 13 14 14 14 14 14 14 14 14 14 14 14 14 14 14 14 14 14
14 14 14 14 14 14 14 14 13 13 13 13 13 13 13 13 13 13 13 13 13 13 13 13 13 14 14 14 14 14 14 14 14 14 14 14 14 14
14 14 14 14 14 14 13 13 13 13 13 13 13 12 12 13 13 13 13 13 13 13 13 13 13 13 13 13 13 13 13 13 13 13 13 14 14 14
14 14 14 14 14 13 13 13 13 13 13 13 12 12 12 12 12 12 12 12 12 12 12 12 12 12 13 13 13 13 13 13 13 13 13 13 13 13
14 13 13 13 13 13 13 13 13 13 12 12 12 12 12 12 12 12 12 12 12 12 12 12 12 12 12 12 12 12 12 12 12 12 12 12 12 13
14 13 13 13 13 13 13 13 13 13 12 12 12 12 12 12 12 12 12 12 12 11 12 12 12 12 12 12 12 12 12 12 12 12 12 12 12 12
14 13 13 13 13 13 13 13 12 12 12 12 12 12 11 11 11 11 11 11 11 11 11 11 11 11 11 11 11 11 11 11 11 11 11 11 11 11
14 13 13 13 13 13 13 13 12 12 12 12 12 12 11 11 11 11 11 11 11 10 11 11 11 11 10 10 10 10 10 10 10 10 10 11 11 11
14 13 13 13 13 13 13 12 12 12 12 12 12 11 11 11 11 10 10 10 10 10 10 10 10 10 10 10 10 10 10 10 10 10 10 10 10 10
13 13 13 13 13 13 12 12 12 12 12 11 11 11 11 11 10 10 10 10 10 10 10 9 9 9 10 10 9 9 9 9 9 9 9 9 9 10
13 13 13 13 12 12 12 12 12 12 11 11 11 11 10 10 10 10 10 10 9 9 9 9 9 9 8 9 9 9 9 9 9 9 9 9 9 9
13 13 13 12 12 12 12 12 12 11 11 11 11 10 10 10 10 10 9 9 9 9 8 8 8 8 8 8 8 8 8 8 8 8 8 8 8 8
13 13 12 12 12 12 12 11 11 11 11 11 11 10 10 10 10 9 9 9 9 8 8 8 8 8 7 7 7 8 8 7 7 7 7 7 7 7
13 12 12 12 12 11 11 11 11 11 11 10 10 10 10 9 9 9 9 8 8 8 8 8 7 7 7 7 7 7 7 7 7 7 7 6 6 6
12 12 12 12 11 11 11 11 11 10 10 10 10 10 9 9 9 8 8 8 8 8 8 7 7 7 7 7 6 6 6 6 6 6 6 6 6 5
12 12 12 12 11 11 11 11 10 10 10 10 9 9 9 9 8 8 8 8 7 7 7 7 7 7 6 6 6 6 6 6 5 5 5 5 5 5
12 12 12 11 11 11 11 10 10 10 10 9 9 9 9 8 8 8 7 7 7 7 7 7 6 6 6 6 6 5 5 5 5 5 4 4 4 4
12 12 11 11 11 11 10 10 10 10 9 9 9 8 8 8 8 7 7 7 7 6 6 6 6 5 5 4 5 5 4 4 4 4 4 3 3 3
12 12 11 11 11 11 10 10 10 9 9 9 9 8 8 7 7 7 7 6 6 6 6 5 5 5 4 4 4 4 4 3 3 3 3 3 3 3
12 11 11 11 11 10 10 10 9 9 9 8 8 8 8 7 7 7 6 6 5 5 5 5 5 4 4 3 3 3 3 3 2 2 2 2 2 2
11 11 11 10 10 10 10 9 9 9 8 8 8 8 7 7 6 6 6 5 5 5 4 4 4 4 3 3 2 2 2 3 2 2 2 2 1 1
11 11 10 10 10 9 9 9 9 8 8 8 7 7 7 6 6 6 5 5 4 4 4 4 3 3 3 2 2 2 2 2 2 2 2 2 1 1
Wind_Speed
5 5 4 3 3 3 3 3 4 2 2 3 3 5 9 9 11 11 11 13 13 13 13 13 13 13 13 13 13 13 12 11 11 10 9 9 8 7
4 6 5 3 4 4 3 3 3 3 1 1 2 3 6 8 10 11 11 12 13 13 13 13 13 13 12 12 12 13 12 11 10 10 9 9 9 8
5 6 5 4 4 4 4 4 3 3 3 1 2 3 4 5 8 10 11 11 12 13 13 13 13 13 12 12 12 13 13 13 12 11 10 10 9 9
4 5 5 4 5 4 4 4 3 3 3 2 2 3 4 4 5 6 8 9 10 12 13 13 13 13 12 12 12 12 12 12 12 12 11 10 9 8
4 4 3 4 4 3 4 4 3 3 3 3 1 2 2 3 4 4 6 7 9 10 11 12 13 12 12 12 11 11 11 11 11 11 11 10 10 9
3 3 3 3 3 3 3 3 3 4 4 3 2 2 2 3 3 3 4 4 5 8 9 10 11 12 12 11 11 11 11 11 11 11 11 11 10 10
4 3 2 3 3 3 3 3 4 3 3 3 2 2 2 3 3 2 2 3 3 5 5 7 8 9 10 10 10 10 11 11 10 10 10 11 11 10
3 2 2 4 5 5 5 5 5 4 3 2 1 1 1 1 1 1 1 2 3 4 4 4 5 4 7 7 8 9 10 10 10 10 11 11 11 11
3 2 2 2 4 4 5 6 5 4 3 4 3 2 2 2 0 1 1 1 1 3 2 3 3 3 5 6 7 9 9 10 10 10 11 11 11 11
2 3 3 1 2 4 4 4 3 3 2 2 3 3 3 3 3 2 1 1 2 2 1 1 3 3 5 6 6 7 8 9 10 10 10 11 11 11
1 2 2 2 2 4 4 3 2 2 3 3 2 1 2 1 2 2 1 2 2 2 1 0 2 3 3 3 5 7 8 9 10 11 11 12 12 11
1 1 2 3 3 4 4 3 1 1 1 2 3 4 4 4 2 1 2 1 0 2 2 1 2 2 3 2 4 7 9 10 11 11 12 12 12 10
3 2 2 3 3 3 4 3 4 2 1 1 1 2 3 3 3 2 1 2 2 2 2 0 1 1 2 3 3 5 7 7 9 10 11 12 12 10
4 3 3 4 3 3 2 3 3 3 2 1 1 2 2 2 3 3 2 2 3 5 5 2 2 2 2 3 4 4 5 8 7 7 9 12 12 13
4 6 5 5 3 1 1 2 2 2 2 1 1 2 2 2 3 3 3 3 3 4 5 4 3 3 2 4 4 4 5 5 6 6 7 8 8 9
3 3 4 4 2 1 0 1 1 2 2 2 2 2 2 1 1 1 1 2 2 4 5 5 5 3 3 5 5 6 5 5 5 6 7 8 10 10
4 2 2 1 1 1 1 1 1 1 2 2 2 2 2 2 2 1 1 1 1 3 5 4 6 7 7 5 6 7 7 6 7 7 7 8 9 10
6 3 3 4 4 4 3 3 3 3 4 3 3 3 3 3 3 2 2 2 3 4 5 4 3 4 4 5 8 7 6 7 7 7 6 9 11 10
5 4 5 5 5 5 5 4 4 4 4 4 4 4 4 4 4 4 3 3 4 5 5 4 3 3 6 9 6 8 6 8 8 8 8 8 11 11
5 6 6 6 6 6 6 5 5 5 4 5 5 5 5 5 5 5 5 5 5 5 5 4 4 5 6 8 8 7 10 9 8 9 9 9 10 13
6 6 6 6 6 6 6 6 6 6 6 5 6 6 6 5 6 6 6 7 6 5 7 7 7 8 6 5 7 8 7 12 13 10 10 10 11 10
7 7 7 7 6 6 6 6 5 6 6 6 6 6 6 6 7 7 6 6 6 6 8 7 6 4 4 7 11 11 11 10 13 17 17 15 10 11
7 7 6 6 6 6 6 6 7 6 6 6 6 6 6 6 6 6 6 6 6 7 7 7 5 5 6 8 10 11 13 13 10 10 10 16 21 24
Wind_Direction
66 69 68 56 61 69 96 119 129 102 16 346 351 354 8 24 27 34 34 35 38 40 43 43 43 44 45 46 46 44 44 44 42 40 38 36 33 27
65 69 62 53 58 60 72 77 99 130 116 340 335 335 360 22 28 36 37 37 37 39 43 44 43 43 46 50 50 46 43 42 39 37 35 32 28 23
62 72 64 59 65 57 64 71 70 92 111 360 345 349 10 16 17 30 39 39 36 39 43 45 45 45 47 51 53 51 47 42 39 34 31 28 24 20
68 74 68 74 68 60 69 71 70 75 112 93 6 2 6 358 5 20 30 33 33 36 41 42 43 45 47 48 49 48 45 40 37 32 25 20 16 12
79 83 80 86 76 69 74 74 69 68 77 100 36 2 359 358 7 13 21 20 25 28 35 37 38 42 45 44 43 41 38 34 30 26 20 13 8 2
78 83 88 101 111 103 92 89 90 78 71 75 51 10 357 344 17 15 8 8 11 16 23 26 30 38 39 37 38 35 32 29 24 19 14 9 4 358
77 72 84 104 115 120 118 122 110 94 79 71 47 22 1 4 2 346 3 349 2 15 7 13 18 24 23 25 30 30 27 23 20 16 10 5 359 352
105 76 64 70 83 88 94 113 127 125 128 114 94 69 308 301 321 346 360 11 348 352 6 350 6 7 8 16 22 25 22 18 13 8 4 360 356 351
130 115 94 81 86 86 76 76 73 82 128 148 152 202 229 246 260 0 7 10 282 310 357 335 342 342 347 3 14 16 15 13 8 3 358 354 351 351
139 141 132 112 114 119 101 78 58 39 61 120 172 213 227 228 202 200 208 290 307 320 8 325 325 320 322 332 352 4 5 4 3 0 357 353 348 345
145 145 158 163 163 132 116 104 61 6 39 69 82 55 22 29 132 109 70 54 348 319 354 336 309 312 309 308 319 343 350 352 351 349 348 348 345 341
154 182 196 186 176 148 141 143 150 277 352 20 23 21 23 25 38 103 165 151 228 301 307 329 309 336 321 300 307 322 331 335 338 339 340 340 341 340
184 211 232 207 183 166 158 174 204 193 155 80 13 1 8 13 11 7 188 175 187 253 273 235 280 308 280 297 304 304 312 315 321 325 331 332 332 330
193 205 211 200 184 173 171 194 186 137 109 81 29 343 336 329 327 332 321 256 234 246 270 246 230 247 277 294 296 302 305 305 304 308 315 321 322 319
195 190 187 182 167 168 190 175 144 130 129 146 259 270 269 282 310 326 336 329 306 288 285 260 236 244 243 263 281 291 303 301 295 299 308 309 305 307
185 177 169 158 150 172 158 122 151 181 183 208 238 260 281 294 299 295 301 327 327 308 301 289 269 245 258 262 267 282 284 286 297 301 301 299 296 291
154 129 133 157 197 229 240 240 224 204 212 218 222 244 264 271 273 259 241 252 271 291 303 307 298 274 255 254 269 273 280 284 285 294 300 300 294 290
151 168 194 203 212 219 224 235 230 225 223 217 221 229 240 250 262 255 228 233 258 270 277 285 307 319 310 272 238 263 277 282 290 291 287 294 296 294
172 194 206 213 219 218 218 220 227 226 216 217 226 231 235 240 243 251 249 250 260 266 270 269 272 282 301 302 281 233 260 286 292 292 286 283 289 293
200 208 215 217 217 219 219 221 228 228 221 225 229 232 230 232 239 247 248 248 260 269 276 269 254 251 260 278 287 282 258 262 280 289 292 290 284 283
213 219 220 219 220 220 222 222 224 228 228 225 230 231 229 227 239 245 249 253 255 262 270 271 262 260 263 274 283 285 277 262 261 273 287 293 297 299
216 220 223 222 222 223 223 223 227 232 233 232 234 234 230 228 238 245 246 250 252 256 265 273 276 273 255 266 278 286 291 291 282 275 268 265 278 287
222 222 223 223 224 222 221 223 226 234 233 232 234 234 231 232 236 238 243 246 253 262 269 278 279 266 264 267 277 285 289 294 296 295 286 277 273 274
Height
1569 1569 1569 1569 1569 1570 1570 1571 1571 1571 1571 1571 1571 1570 1569 1569 1568 1567 1566 1566 1565 1564 1563 1562 1561 1561 1560 1560 1559 1559 1559 1559 1559 1559 1559 1559 1559 1559
1570 1570 1570 1570 1571 1571 1571 1571 1572 1572 1571 1572 1571 1571 1570 1570 1569 1568 1567 1566 1565 1565 1563 1562 1562 1561 1560 1560 1560 1559 1559 1559 1559 1559 1558 1558 1558 1558
1572 1572 1572 1572 1572 1572 1572 1572 1572 1572 1572 1572 1572 1571 1571 1570 1569 1569 1568 1567 1566 1565 1564 1563 1562 1561 1561 1560 1560 1559 1559 1558 1558 1558 1557 1557 1556 1556
1573 1573 1573 1573 1573 1573 1573 1573 1573 1573 1573 1572 1572 1572 1571 1570 1570 1569 1568 1567 1566 1565 1564 1563 1562 1562 1561 1560 1560 1559 1558 1558 1557 1556 1556 1555 1555 1554
1574 1574 1574 1574 1574 1574 1574 1574 1573 1573 1573 1573 1573 1572 1572 1571 1570 1569 1568 1567 1566 1565 1564 1563 1562 1561 1560 1560 1559 1558 1557 1556 1556 1555 1554 1553 1553 1552
1575 1574 1574 1574 1574 1574 1574 1574 1574 1574 1574 1573 1573 1572 1571 1570 1570 1568 1567 1567 1566 1565 1564 1563 1562 1561 1560 1559 1558 1557 1556 1555 1554 1553 1552 1551 1549 1548
1575 1575 1575 1575 1575 1575 1575 1575 1575 1574 1574 1573 1573 1572 1571 1570 1569 1568 1567 1566 1565 1564 1563 1562 1561 1559 1558 1557 1556 1555 1554 1553 1552 1550 1549 1548 1546 1545
1576 1575 1575 1575 1575 1575 1575 1575 1575 1574 1573 1573 1572 1571 1570 1570 1569 1567 1566 1565 1564 1564 1562 1561 1559 1558 1557 1556 1555 1553 1552 1550 1549 1547 1546 1544 1542 1541
1576 1575 1575 1575 1575 1575 1575 1574 1574 1574 1573 1573 1572 1571 1570 1569 1568 1567 1566 1564 1563 1562 1560 1559 1558 1556 1555 1554 1553 1551 1550 1548 1546 1544 1542 1541 1539 1536
1575 1575 1575 1575 1575 1574 1574 1574 1573 1573 1572 1571 1571 1570 1569 1568 1567 1566 1565 1563 1562 1561 1559 1557 1556 1554 1553 1552 1551 1549 1547 1545 1543 1541 1539 1537 1534 1532
1574 1574 1574 1574 1574 1573 1573 1573 1572 1572 1571 1570 1570 1569 1568 1567 1566 1565 1563 1562 1560 1559 1558 1556 1553 1551 1550 1549 1548 1546 1545 1542 1540 1538 1535 1533 1530 1528
1572 1572 1572 1572 1572 1572 1572 1571 1571 1570 1570 1569 1568 1568 1566 1565 1564 1563 1562 1560 1558 1557 1556 1554 1552 1549 1547 1545 1545 1543 1541 1539 1537 1534 1532 1529 1526 1523
1570 1570 1570 1570 1570 1570 1570 1569 1569 1568 1568 1567 1566 1565 1564 1563 1562 1561 1560 1558 1557 1555 1554 1552 1550 1548 1545 1542 1540 1539 1537 1535 1532 1530 1528 1525 1522 1519
1567 1568 1568 1568 1568 1568 1567 1567 1567 1566 1565 1564 1564 1563 1562 1561 1560 1559 1558 1556 1555 1553 1552 1550 1547 1545 1542 1539 1536 1534 1533 1531 1528 1525 1523 1520 1517 1514
1564 1565 1565 1565 1565 1565 1564 1564 1564 1563 1562 1562 1561 1560 1559 1558 1557 1556 1555 1554 1552 1551 1549 1547 1545 1542 1540 1537 1533 1531 1528 1526 1524 1520 1517 1514 1511 1508
1561 1561 1562 1562 1562 1561 1561 1561 1561 1560 1559 1559 1558 1557 1556 1555 1554 1553 1551 1550 1549 1547 1546 1544 1541 1539 1536 1533 1530 1527 1525 1521 1518 1515 1511 1508 1505 1502
1558 1558 1558 1558 1558 1558 1558 1557 1557 1556 1556 1555 1554 1553 1553 1552 1550 1549 1548 1546 1544 1542 1540 1539 1537 1535 1532 1529 1525 1522 1519 1516 1513 1510 1505 1501 1498 1496
1553 1553 1553 1554 1554 1554 1553 1553 1553 1552 1552 1551 1550 1549 1548 1547 1546 1545 1544 1542 1540 1537 1535 1534 1531 1528 1525 1522 1521 1517 1513 1510 1507 1504 1500 1494 1489 1488
1548 1548 1549 1549 1549 1549 1549 1549 1548 1548 1547 1547 1546 1545 1544 1543 1541 1540 1538 1536 1534 1532 1530 1529 1526 1522 1518 1514 1512 1512 1508 1503 1500 1496 1493 1489 1483 1479
1543 1543 1544 1544 1544 1544 1544 1544 1543 1543 1542 1541 1540 1539 1538 1537 1536 1534 1533 1531 1529 1526 1524 1522 1520 1517 1514 1509 1504 1502 1502 1498 1493 1489 1485 1481 1476 1472
1538 1538 1539 1539 1539 1539 1538 1538 1538 1537 1536 1535 1534 1533 1532 1531 1529 1528 1526 1524 1522 1520 1517 1515 1514 1511 1508 1504 1499 1494 1493 1491 1488 1483 1478 1473 1467 1462
1532 1532 1533 1533 1533 1533 1533 1532 1531 1531 1530 1529 1528 1527 1526 1524 1523 1521 1519 1518 1516 1513 1511 1508 1506 1504 1501 1496 1491 1486 1483 1481 1479 1476 1472 1468 1463 1456
1526 1526 1526 1527 1527 1527 1526 1526 1525 1524 1523 1522 1521 1520 1519 1517 1516 1514 1512 1511 1508 1506 1503 1500 1498 1495 1492 1489 1484 1480 1476 1472 1468 1465 1462 1460 1457 1452